OSCAR 7 (AO-7) 1 07530U 74089B 26165.25919906 -.00000031 00000+0 98943-4 0 9995 2 07530 101.9901 178.4753 0012539 135.5580 235.9820 12.53698067360151 PHASE 3B (AO-10) 1 14129U 83058B 26164.48490246 .00000072 00000+0 00000+0 0 9994 2 14129 25.9094 220.1781 6012114 114.6492 317.6358 2.05869395295412 UOSAT 2 (UO-11) 1 14781U 84021B 26165.20095834 .00001160 00000+0 12366-3 0 9995 2 14781 97.8057 130.8090 0007353 182.6210 177.4971 14.90776632256686 LUSAT (LO-19) 1 20442U 90005G 26164.97260120 .00000110 00000+0 56016-4 0 9995 2 20442 98.8851 186.6896 0010942 210.9813 149.0727 14.34122315901935 EYESAT A (AO-27) 1 22825U 93061C 26165.20292012 .00000088 00000+0 50393-4 0 9995 2 22825 98.6880 232.6175 0009509 107.4097 252.8126 14.30941512706578 ITAMSAT (IO-26) 1 22826U 93061D 26165.18322286 .00000084 00000+0 48499-4 0 9990 2 22826 98.6828 232.5150 0010095 92.8223 267.4115 14.31368337706886 RADIO ROSTO (RS15) 1 23439U 94085A 26165.10055205 -.00000049 00000+0 -18898-3 0 9996 2 23439 64.8180 308.2082 0155856 4.4474 355.7795 11.27583525295552 JAS-2 (FO-29) 1 24278U 96046B 26165.13192875 .00000020 00000+0 52658-4 0 9995 2 24278 98.5241 14.4226 0350867 104.3391 259.6965 13.53274148472758 TECHSAT 1B (GO-32) 1 25397U 98043D 26164.97369743 .00000055 00000+0 43938-4 0 9997 2 25397 99.0066 157.6512 0000887 169.9985 190.1211 14.24427891450876 ISS (ZARYA) 1 25544U 98067A 26165.09325831 .00008623 00000+0 16324-3 0 9998 2 25544 51.6335 315.4063 0004935 183.6835 176.4118 15.49219019571273 PCSAT (NO-44) 1 26931U 01043C 26165.29565329 .00000096 00000+0 66841-4 0 9993 2 26931 67.0507 251.7506 0006072 264.5496 95.4913 14.31955183290030 SAUDISAT 1C (SO-50) 1 27607U 02058C 26165.25570183 .00000931 00000+0 12707-3 0 9990 2 27607 64.5509 138.0554 0075327 263.0161 96.2373 14.83041207264026 CUTE-1 (CO-55) 1 27844U 03031E 26165.01650923 .00000269 00000+0 13536-3 0 9995 2 27844 98.6736 173.6152 0009315 187.2201 172.8845 14.24333986191223 CUBESAT XI-IV (CO-57) 1 27848U 03031J 26165.28450993 .00000215 00000+0 11362-3 0 9999 2 27848 98.6766 173.5948 0008828 205.9293 154.1445 14.23619426190963 MOZHAETS 4 (RS22) 1 27939U 03042A 26165.29524249 .00001006 00000+0 16324-3 0 9991 2 27939 98.3466 349.5726 0009986 280.2575 157.7014 14.73462884215128 CUBESAT XI-V 1 28895U 05043F 26164.39375696 .00001317 00000+0 21486-3 0 9996 2 28895 98.2979 319.9359 0013416 213.2696 146.7669 14.72622172101196 CUTE-1.7+APD II (CO-65) 1 32785U 08021C 26165.19938055 .00004778 00000+0 30257-3 0 9991 2 32785 97.8270 146.5558 0010151 48.5281 311.6817 15.09428490984741 SEEDS II (CO-66) 1 32791U 08021J 26164.93655222 .00018728 00000+0 59582-3 0 9993 2 32791 97.7509 162.6789 0001549 14.7739 345.3547 15.32650243986791 YUBILEINY (RS30) 1 32953U 08025A 26165.28173090 .00000120 00000+0 79345-3 0 9990 2 32953 82.5044 357.2484 0018975 320.4859 39.4837 12.43179589819338 KKS-1 (KISEKI) 1 33499U 09002H 26165.22061409 .00001227 00000+0 15738-3 0 9991 2 33499 98.1192 87.6158 0006674 307.3634 52.6971 14.83117281935759 SWISSCUBE 1 35932U 09051B 26165.22670746 .00000895 00000+0 18634-3 0 9997 2 35932 98.4040 73.0633 0005785 213.5244 146.5592 14.62476649888721 BEESAT-1 1 35933U 09051C 26165.30305620 .00000739 00000+0 15814-3 0 9997 2 35933 98.3967 72.7826 0004080 228.1566 131.9287 14.61716350888763 ITUPSAT1 1 35935U 09051E 26165.22290827 .00000683 00000+0 15098-3 0 9994 2 35935 98.4052 71.8963 0006164 244.9503 115.1058 14.60436749888305 XIWANG-1 (HOPE-1) 1 36122U 09072B 26165.27991448 .00000111 00000+0 40597-3 0 9996 2 36122 100.4021 119.1582 0006827 238.7906 121.2538 13.16440450792625 O/OREOS (USA 219) 1 37224U 10062C 26165.18250907 .00002244 00000+0 21739-3 0 9995 2 37224 71.9713 87.1452 0012472 69.6515 290.5994 14.93733212116194 JUGNU 1 37839U 11058B 26165.13992560 .00000401 00000+0 70161-4 0 9993 2 37839 19.9620 326.9419 0018614 42.7337 118.6103 14.13775965758591 SRMSAT 1 37841U 11058D 26165.10596875 .00000361 00000+0 51961-4 0 9994 2 37841 19.9719 78.1172 0011859 169.7435 229.6321 14.11574987757388 STRAND-1 1 39090U 13009E 26164.99264803 .00000257 00000+0 10072-3 0 9990 2 39090 98.3921 345.3057 0007583 236.1034 123.9432 14.37161671696602 ZACUBE-1 (TSHEPISOSAT) 1 39417U 13066B 26165.14115578 .00003529 00000+0 27550-3 0 9992 2 39417 97.8083 127.4617 0040471 258.3287 101.3393 15.01173415680271 GOMX-1 1 39430U 13066Q 26165.25794256 .00001978 00000+0 30067-3 0 9998 2 39430 97.6485 5.9059 0130191 86.8493 274.7601 14.69450522669489 CUBEBUG-2 (LO-74) 1 39440U 13066AA 26165.11577810 .00004533 00000+0 41941-3 0 9992 2 39440 97.8903 114.0809 0058613 38.9303 321.6115 14.93738647676538 FUNCUBE-1 (AO-73) 1 39444U 13066AE 26164.87461990 .00007372 00000+0 45803-3 0 9994 2 39444 97.8267 136.2511 0035377 212.6416 147.2626 15.09452478679163 UWE-3 1 39446U 13066AG 26164.80677422 .00004526 00000+0 38955-3 0 9996 2 39446 97.8688 120.8577 0048115 332.4032 27.4636 14.96999955677071 UNISAT-6 1 40012U 14033C 26165.30943540 .00003031 00000+0 32788-3 0 9993 2 40012 97.7871 318.0720 0046321 78.5448 282.0966 14.88233086645732 DUCHIFAT-1 1 40021U 14033M 26165.14309872 .00112865 00000+0 11822-2 0 9990 2 40021 98.0474 223.8762 0003417 119.3968 240.7631 15.64039026655277 QB50P1 1 40025U 14033R 26164.98653313 .00008764 00000+0 43164-3 0 9994 2 40025 98.0960 175.9078 0007561 228.0389 132.0200 15.18216590652541 LILACSAT-2 1 40908U 15049K 26165.17625778 .00017413 00000+0 29746-3 0 9999 2 40908 97.4649 201.9032 0005353 259.3379 100.7270 15.51356675595283 FOX-1A (AO-85) 1 40967U 15058D 26165.06588972 .00002476 00000+0 22792-3 0 9993 2 40967 64.7761 288.6834 0130258 57.8004 303.5661 14.90956726113100 CAS-2T & KS-1Q 1 41847U 16066G 26165.19312685 .00001608 00000+0 23241-3 0 9997 2 41847 98.3820 240.9636 0342702 138.5317 224.2432 14.44685244504361 RADFXSAT (FOX-1B) 1 43017U 17073E 26165.16518689 .00008607 00000+0 37613-3 0 9990 2 43017 97.4711 32.4423 0150020 339.7577 19.7744 15.12676252464938 DIWATA-2B 1 43678U 18084H 26165.23560101 .00002442 00000+0 19907-3 0 9997 2 43678 98.1178 1.3158 0012341 179.7166 180.4066 15.00439453415773 ES'HAIL 2 1 43700U 18090A 26165.19473333 .00000153 00000+0 00000+0 0 9992 2 43700 0.0008 357.8194 0001514 125.2169 235.3627 1.00269087 27648 FOX-1CLIFF (AO-95) 1 43770U 18099N 26165.12822934 .00011968 00000+0 45845-3 0 9992 2 43770 97.4390 225.3853 0008298 9.0334 351.1052 15.26654463412757 ITASAT 1 43786U 18099AE 26165.12326008 .00006642 00000+0 31978-3 0 9995 2 43786 97.4033 216.6958 0012428 11.1997 348.9512 15.19023460412446 JY1SAT (JO-97) 1 43803U 18099AX 26165.15960116 .00016674 00000+0 51563-3 0 9990 2 43803 97.4134 227.9830 0004214 277.2169 82.8595 15.33568110413169 UWE-4 1 43880U 18111E 26165.30258735 .00032250 00000+0 66149-3 0 9998 2 43880 97.5859 93.5612 0006031 355.2213 4.8977 15.45969448410336 TIANYAN 01 1 44881U 19093C 26165.28493229 .00001044 00000+0 12383-3 0 9994 2 44881 97.7536 237.5873 0015035 95.7186 264.5744 14.86515020350988 RS-44 & BREEZE-KM R/B 1 44909U 19096E 26165.19066042 .00000023 00000+0 42004-4 0 9997 2 44909 82.5218 341.6965 0218055 151.1526 210.1839 12.79748810301960 SALSAT 1 46495U 20068K 26165.00581426 .00008178 00000+0 28632-3 0 9997 2 46495 97.8843 167.8766 0008281 321.5879 38.4769 15.29759103314876 XW-3 (CAS-9) 1 50466U 21131B 26165.27784161 .00000541 00000+0 18072-3 0 9995 2 50466 98.4982 257.6830 0005335 103.2580 256.9204 14.41355242234692 GREENCUBE (IO-117) 1 53109U 22080E 26164.29338770 -.00000003 00000+0 00000+0 0 9990 2 53109 70.1444 299.5995 0008910 290.4576 69.5127 6.42583230 91811 UMKA 1 (RS40S) 1 57172U 23091G 26165.19886139 .00006176 00000+0 28271-3 0 9994 2 57172 97.5056 223.9073 0014132 126.9272 233.3260 15.20787062163559 CUBESX-HSE 3 (RS42S) 1 57178U 23091N 26165.23304610 .00013320 00000+0 44403-3 0 9998 2 57178 97.5100 230.7826 0012103 103.7558 256.5031 15.31149367163974 MONITOR-3 (RS58S) 1 57180U 23091Q 26165.25103138 .00011252 00000+0 41613-3 0 9997 2 57180 97.5090 228.6750 0013110 109.7588 250.5066 15.27790442163844 MONITOR-4 (RS57S) 1 57182U 23091S 26165.23025127 .00009920 00000+0 36629-3 0 9998 2 57182 97.5085 228.6254 0013121 110.1690 250.0962 15.27875695163845 MONITOR-2 (RS39S) 1 57184U 23091U 26165.21637082 .00004756 00000+0 23089-3 0 9995 2 57184 97.5078 223.5183 0012653 120.0821 240.1669 15.18886244163508 SVYATOBOR 1 (RS60S) 1 57187U 23091X 26165.24081303 .00009336 00000+0 35906-3 0 9990 2 57187 97.5096 229.0413 0010901 103.2260 257.0195 15.26571433163862 VIZARD-METEO (RS38S) 1 57189U 23091Z 26165.28115683 .00017425 00000+0 49928-3 0 9992 2 57189 97.5100 234.7078 0008433 86.2910 273.9298 15.35944470164248 POLYTECH-UNIVERSE 3 (R*) 1 57191U 23091AB 26165.24396681 .00005565 00000+0 26761-3 0 9992 2 57191 97.5053 223.0501 0016710 136.1179 224.1386 15.19088035163501 UTMN 2 (RS27S) 1 57203U 23091AP 26165.25224857 .00013441 00000+0 43690-3 0 9994 2 57203 97.5095 232.4323 0009413 92.5019 267.7300 15.31988986164099 KUZGTU 1 (RS47S) 1 57217U 23091AV 26165.22153468 .00012040 00000+0 41865-3 0 9991 2 57217 97.5071 229.6711 0012370 107.1126 253.1470 15.29802531163921 SONATE-2 1 59112U 24043Q 26164.99241653 .00038437 00000+0 50299-3 0 9991 2 59112 97.5521 315.1932 0006914 205.9654 154.1256 15.58498683127397 MESAT1 1 60209U 24125G 26165.16134300 .00055738 00000+0 61397-3 0 9995 2 60209 97.2291 22.5760 0009220 215.2038 144.8612 15.62910376109090 OOV-CUBE (TUBSAT-30) 1 60240U 24128F 26164.92812935 .00002141 00000+0 17165-3 0 9997 2 60240 61.9948 236.9373 0045036 132.9755 227.5126 15.02762484105622 COLIBRI-S (RS67S) 1 61746U 24199M 26165.28162888 .00021031 00000+0 40875-3 0 9995 2 61746 97.3000 39.1102 0006244 292.9085 67.1506 15.47618457136960 HORS 3 (RS81S) 1 61753U 24199U 26165.25782591 .00036802 00000+0 55283-3 0 9990 2 61753 97.2985 41.0412 0003729 296.2886 63.7985 15.54790687137100 HORS 4 (RS82S) 1 61754U 24199V 26165.29135949 .00045908 00000+0 57943-3 0 9996 2 61754 97.2931 42.2583 0003019 277.1803 82.9110 15.59443649137193 ARCTICSAT 1 (RS74S) 1 61762U 24199AD 26165.09943774 .09062228 24925-5 82634-3 0 9992 2 61762 97.2739 49.3340 0010760 237.4855 122.5405 16.38817654137630 SIT-2086 1 61764U 24199AF 26165.29694765 .00034367 00000+0 55282-3 0 9994 2 61764 97.2941 41.5678 0004357 266.3733 93.7022 15.52907720133983 HYPERVIEW 1G (RS66S) 1 61772U 24199AP 26165.26794521 .00136151 00000+0 90107-3 0 9990 2 61772 97.2882 44.8415 0003086 234.0403 126.0576 15.75138405134217 ALTAIR (RS65S) 1 61779U 24199AW 26165.24742701 .00010118 00000+0 28133-3 0 9992 2 61779 97.3036 34.6183 0011369 323.1074 36.9388 15.36980822136668 ASRTU-1 (AO-123) 1 61781U 24199AY 26165.29791694 .00007519 00000+0 21879-3 0 9996 2 61781 97.3006 33.9954 0012534 325.5504 34.4926 15.35639171133480 SAMSAT-IONOSPHERE (RS7*) 1 61784U 24199BB 26165.29677651 .00042916 00000+0 58479-3 0 9991 2 61784 97.2953 41.1173 0005856 291.8980 68.1653 15.57398510137117 RTU MIREA 1 (RS51S) 1 61785U 24199BC 26165.26343934 .00056700 00000+0 67815-3 0 9993 2 61785 97.2942 41.8998 0005468 283.6945 76.3703 15.60803299134019 TEVEL2-4 1 63213U 25052D 26165.24787499 .00018966 00000+0 56859-3 0 9994 2 63213 97.3916 61.6351 0004816 109.6731 250.5032 15.34521114 69661 TEVEL2-5 1 63214U 25052E 26165.13761332 .00019767 00000+0 59574-3 0 9998 2 63214 97.3913 61.4736 0004713 110.5987 249.5761 15.34345297 69645 TEVEL2-6 1 63215U 25052F 26165.28031027 .00018628 00000+0 56220-3 0 9996 2 63215 97.3919 61.6008 0004643 110.4903 249.6839 15.34313968 69664 TEVEL2-1 1 63217U 25052H 26165.24308869 .00018167 00000+0 55762-3 0 9993 2 63217 97.3887 61.1915 0004629 119.5587 240.6117 15.33782772 69644 TEVEL2-3 1 63218U 25052J 26165.23783726 .00017827 00000+0 54634-3 0 9991 2 63218 97.3893 61.2078 0004602 119.3991 240.7711 15.33837086 69641 TEVEL2-2 1 63219U 25052K 26165.24341888 .00018234 00000+0 55953-3 0 9990 2 63219 97.3886 61.1944 0004638 119.8563 240.3141 15.33790939 69642 TEVEL2-9 1 63237U 25052AD 26165.28236824 .00016318 00000+0 53265-3 0 9992 2 63237 97.3950 60.6144 0007556 138.8374 221.3439 15.31820596 69586 TEVEL2-7 1 63238U 25052AE 26165.25738366 .00015403 00000+0 50763-3 0 9992 2 63238 97.3957 60.5072 0007596 139.3804 220.8005 15.31524555 69579 TEVEL2-8 1 63239U 25052AF 26165.20026774 .00015772 00000+0 51998-3 0 9991 2 63239 97.3953 60.4271 0007654 140.3023 219.8780 15.31507212 69564 INNOSAT 16 (RS92S7) 1 64878U 25155C 26165.24697255 .00005668 00000+0 22686-3 0 9992 2 64878 97.4558 132.3841 0010202 185.6746 174.4378 15.25429064 80221 GEOSCAN 6 (RS92S6) 1 64879U 25155D 26165.23874147 .00009598 00000+0 33173-3 0 9998 2 64879 97.4550 133.7792 0007977 171.8879 188.2492 15.30102391 80310 GEOSCAN 1 (RS92S1) 1 64880U 25155E 26165.24233273 .00010458 00000+0 35467-3 0 9995 2 64880 97.4546 133.9282 0007914 171.6391 188.4983 15.30694073 80322 239ALFEROV (RS61S) 1 64881U 25155F 26165.28144762 .00013733 00000+0 43440-3 0 9993 2 64881 97.4547 134.5192 0007642 168.2553 191.8869 15.32869491 80366 GEOSCAN 2 (RS92S2) 1 64890U 25155Q 26165.23653840 .00010290 00000+0 34614-3 0 9998 2 64890 97.4545 134.0737 0007756 158.3222 201.8348 15.30964635 80338 GEOSCAN 5 (RS92S5) 1 64891U 25155R 26165.27107453 .00013983 00000+0 43800-3 0 9996 2 64891 97.4539 134.6451 0006342 171.6853 188.4496 15.33187955 80372 GEOSCAN 4 (RS92S4) 1 64892U 25155S 26165.25555866 .00014205 00000+0 44278-3 0 9998 2 64892 97.4543 134.6771 0006416 171.5814 188.5537 15.33340189 80378 GEOSCAN 3 (RS92S3) 1 64893U 25155T 26165.26008393 .00017956 00000+0 52513-3 0 9995 2 64893 97.4531 135.1030 0006335 169.6242 190.5134 15.35308938 80401 INNOSAT 3 (RS92S0) 1 64894U 25155U 26165.26608445 .00036148 00000+0 80154-3 0 9996 2 64894 97.4481 136.6923 0006018 158.5495 201.6007 15.43643017 80512 KNACKSAT-2 1 67683U 98067XZ 26164.69872930 .00046958 00000+0 57858-3 0 9990 2 67683 51.6303 312.0209 0009611 199.6131 160.4494 15.59677165 19734